When you browse on this site, cookies collect data to enhance your experience and personalize the content and advertising you see.
Visit our Privacy Policy to learn more. By continuing to use the site, you agree to this use of cookies and data.
  • In Hungary
  • List of Countries
  • For 7 days
  • Water Temperature
  • Weather Map
  • News
  • Weather Widgets
  • user-avatar
    Login

    Hourly Weather Malye Gorodischi

    Today, 21 January, Tuesday

    Time Temperature Precipitation Wind Pressure Humidity
    00:00 -2°C° 0.2 mm 5 mps 748 mmHg 89%
    01:00 -2°C° 0.2 mm 5 mps 747 mmHg 92%
    02:00 -3°C° 0.2 mm 6 mps 746 mmHg 96%
    03:00 -2°C° 0.3 mm 6 mps 745 mmHg 96%
    04:00 -2°C° 0.3 mm 6 mps 744 mmHg 96%
    05:00 -2°C° 0.3 mm 6 mps 742 mmHg 97%
    06:00 -1°C° 0.3 mm 6 mps 742 mmHg 95%
    07:00 +1°C° 0.3 mm 6 mps 741 mmHg 93%
    08:00 0°C° 0.3 mm 7 mps 740 mmHg 91%
    09:00 +2°C° 0.1 mm 7 mps 739 mmHg 90%
    10:00 +2°C° 0.1 mm 6 mps 739 mmHg 89%
    11:00 +2°C° 0.1 mm 6 mps 738 mmHg 88%
    12:00 +3°C° 0 mm 6 mps 738 mmHg 87%
    13:00 +3°C° 0 mm 6 mps 738 mmHg 86%
    14:00 +3°C° 0 mm 7 mps 737 mmHg 84%
    15:00 +3°C° 0.1 mm 6 mps 736 mmHg 85%
    16:00 +2°C° 0.1 mm 6 mps 736 mmHg 87%
    17:00 +2°C° 0.1 mm 6 mps 735 mmHg 88%
    18:00 +1°C° 0.4 mm 6 mps 735 mmHg 87%
    19:00 +1°C° 0.4 mm 6 mps 735 mmHg 85%
    20:00 -1°C° 0.4 mm 7 mps 735 mmHg 84%
    21:00 -1°C° 0 mm 7 mps 735 mmHg 80%
    22:00 -2°C° 0 mm 7 mps 735 mmHg 77%
    23:00 -3°C° 0 mm 7 mps 735 mmHg 74%

    Tomorrow, 22 January, Wednesday

    Time Temperature Precipitation Wind Pressure Humidity
    00:00 -3°C° 0 mm 7 mps 735 mmHg 75%
    01:00 -3°C° 0 mm 7 mps 735 mmHg 76%
    02:00 -4°C° 0 mm 7 mps 735 mmHg 77%
    03:00 -4°C° 0 mm 6 mps 735 mmHg 79%
    04:00 -4°C° 0 mm 6 mps 734 mmHg 80%
    05:00 -4°C° 0 mm 6 mps 733 mmHg 81%
    06:00 -4°C° 0.1 mm 6 mps 733 mmHg 80%
    07:00 -4°C° 0.1 mm 6 mps 732 mmHg 79%
    08:00 -4°C° 0.1 mm 6 mps 732 mmHg 77%
    09:00 -4°C° 0.1 mm 6 mps 732 mmHg 75%
    10:00 -4°C° 0.1 mm 6 mps 732 mmHg 72%
    11:00 -3°C° 0.1 mm 6 mps 732 mmHg 70%
    12:00 -4°C° 0 mm 6 mps 732 mmHg 70%
    13:00 -4°C° 0 mm 6 mps 732 mmHg 69%
    14:00 -4°C° 0 mm 6 mps 732 mmHg 69%
    15:00 -4°C° 0 mm 6 mps 732 mmHg 71%
    16:00 -6°C° 0 mm 7 mps 733 mmHg 73%
    17:00 -6°C° 0 mm 7 mps 733 mmHg 76%
    18:00 -6°C° 0.1 mm 7 mps 733 mmHg 77%
    19:00 -6°C° 0.1 mm 7 mps 734 mmHg 78%
    20:00 -7°C° 0.1 mm 7 mps 734 mmHg 79%
    21:00 -7°C° 0 mm 7 mps 735 mmHg 78%
    22:00 -7°C° 0 mm 7 mps 735 mmHg 77%
    23:00 -8°C° 0 mm 7 mps 736 mmHg 76%

    Day after tomorrow, 23 January, Thursday

    Time Temperature Precipitation Wind Pressure Humidity
    00:00 -8°C° 0 mm 7 mps 737 mmHg 74%
    01:00 -9°C° 0 mm 7 mps 738 mmHg 73%
    02:00 -9°C° 0 mm 7 mps 738 mmHg 71%
    03:00 -11°C° 0 mm 7 mps 739 mmHg 70%
    04:00 -11°C° 0 mm 7 mps 739 mmHg 69%
    05:00 -11°C° 0 mm 8 mps 739 mmHg 69%
    06:00 -11°C° 0 mm 7 mps 739 mmHg 67%
    07:00 -11°C° 0 mm 7 mps 740 mmHg 65%
    08:00 -10°C° 0 mm 6 mps 740 mmHg 63%
    09:00 -9°C° 0 mm 6 mps 741 mmHg 62%
    10:00 -9°C° 0 mm 6 mps 741 mmHg 60%
    11:00 -9°C° 0 mm 7 mps 741 mmHg 59%
    12:00 -9°C° 0 mm 7 mps 742 mmHg 60%
    13:00 -9°C° 0 mm 7 mps 742 mmHg 60%
    14:00 -9°C° 0 mm 7 mps 743 mmHg 60%
    15:00 -9°C° 0 mm 6 mps 743 mmHg 62%
    16:00 -10°C° 0 mm 6 mps 744 mmHg 64%
    17:00 -10°C° 0 mm 5 mps 745 mmHg 65%
    18:00 -10°C° 0 mm 5 mps 745 mmHg 67%
    19:00 -10°C° 0 mm 5 mps 745 mmHg 68%
    20:00 -10°C° 0 mm 4 mps 746 mmHg 69%
    21:00 -10°C° 0 mm 4 mps 746 mmHg 71%
    22:00 -10°C° 0 mm 4 mps 746 mmHg 72%
    23:00 -10°C° 0 mm 4 mps 746 mmHg 74%

    24 January, Friday

    Time Temperature Precipitation Wind Pressure Humidity
    00:00 -9°C° 0 mm 3 mps 745 mmHg 71%
    01:00 -8°C° 0 mm 3 mps 745 mmHg 69%
    02:00 -8°C° 0 mm 3 mps 745 mmHg 66%
    03:00 -8°C° 0.1 mm 3 mps 744 mmHg 75%
    04:00 -8°C° 0.1 mm 4 mps 743 mmHg 84%
    05:00 -8°C° 0.1 mm 4 mps 742 mmHg 93%
    06:00 -7°C° 0.3 mm 4 mps 742 mmHg 94%
    07:00 -5°C° 0.3 mm 4 mps 741 mmHg 94%
    08:00 -6°C° 0.3 mm 5 mps 741 mmHg 95%
    09:00 -5°C° 0.2 mm 5 mps 741 mmHg 94%
    10:00 -4°C° 0.2 mm 5 mps 740 mmHg 93%
    11:00 -2°C° 0.2 mm 5 mps 740 mmHg 92%
    12:00 -2°C° 0 mm 5 mps 740 mmHg 91%
    13:00 -2°C° 0 mm 6 mps 740 mmHg 90%
    14:00 -2°C° 0 mm 6 mps 740 mmHg 89%
    15:00 -1°C° 0 mm 5 mps 740 mmHg 88%
    16:00 -1°C° 0 mm 5 mps 740 mmHg 88%
    17:00 -1°C° 0 mm 5 mps 741 mmHg 87%
    18:00 -2°C° 0 mm 4 mps 741 mmHg 88%
    19:00 -2°C° 0 mm 4 mps 741 mmHg 89%
    20:00 -2°C° 0 mm 4 mps 742 mmHg 90%
    21:00 -1°C° 0.1 mm 3 mps 741 mmHg 93%
    22:00 -1°C° 0.1 mm 3 mps 741 mmHg 95%
    23:00 -1°C° 0.1 mm 2 mps 741 mmHg 98%

    25 January, Saturday

    Time Temperature Precipitation Wind Pressure Humidity
    00:00 0°C° 0.4 mm 3 mps 740 mmHg 98%
    01:00 0°C° 0.4 mm 3 mps 740 mmHg 98%
    02:00 +1°C° 0.4 mm 3 mps 740 mmHg 98%
    03:00 0°C° 0.3 mm 4 mps 739 mmHg 97%
    04:00 0°C° 0.3 mm 4 mps 739 mmHg 97%
    05:00 0°C° 0.3 mm 5 mps 739 mmHg 97%
    06:00 +1°C° 0.3 mm 5 mps 738 mmHg 97%
    07:00 +1°C° 0.3 mm 5 mps 738 mmHg 96%
    08:00 +1°C° 0.3 mm 5 mps 738 mmHg 96%
    09:00 +1°C° 0.1 mm 5 mps 738 mmHg 95%
    10:00 +1°C° 0.1 mm 5 mps 739 mmHg 95%
    11:00 +1°C° 0.1 mm 5 mps 739 mmHg 95%
    12:00 +1°C° 0 mm 5 mps 740 mmHg 93%
    13:00 +1°C° 0 mm 5 mps 740 mmHg 90%
    14:00 +1°C° 0 mm 5 mps 740 mmHg 88%
    15:00 0°C° 0 mm 4 mps 741 mmHg 87%
    16:00 0°C° 0 mm 4 mps 741 mmHg 87%
    17:00 -1°C° 0 mm 4 mps 742 mmHg 87%
    18:00 -1°C° 0 mm 3 mps 742 mmHg 89%
    19:00 -1°C° 0 mm 3 mps 742 mmHg 91%
    20:00 -2°C° 0 mm 3 mps 743 mmHg 93%
    21:00 -2°C° 0 mm 3 mps 743 mmHg 93%
    22:00 -2°C° 0 mm 3 mps 743 mmHg 93%
    23:00 -4°C° 0 mm 3 mps 743 mmHg 92%

    26 January, Sunday

    Time Temperature Precipitation Wind Pressure Humidity
    00:00 -4°C° 0 mm 3 mps 743 mmHg 93%
    01:00 -4°C° 0 mm 3 mps 744 mmHg 93%
    02:00 -4°C° 0 mm 3 mps 744 mmHg 94%
    03:00 -4°C° 0 mm 3 mps 744 mmHg 94%
    04:00 -3°C° 0 mm 2 mps 744 mmHg 94%
    05:00 -3°C° 0 mm 2 mps 744 mmHg 94%
    06:00 -3°C° 0 mm 2 mps 744 mmHg 94%
    07:00 -4°C° 0 mm 2 mps 745 mmHg 93%
    08:00 -4°C° 0 mm 2 mps 745 mmHg 93%
    09:00 -3°C° 0 mm 2 mps 745 mmHg 90%
    10:00 -2°C° 0 mm 2 mps 745 mmHg 88%
    11:00 -2°C° 0 mm 3 mps 745 mmHg 85%
    12:00 -1°C° 0 mm 3 mps 745 mmHg 86%
    13:00 -1°C° 0 mm 3 mps 745 mmHg 88%
    14:00 -2°C° 0 mm 4 mps 745 mmHg 90%
    15:00 -1°C° 0 mm 3 mps 744 mmHg 91%
    16:00 -1°C° 0 mm 3 mps 744 mmHg 92%
    17:00 -1°C° 0 mm 3 mps 744 mmHg 93%
    18:00 -1°C° 0 mm 3 mps 744 mmHg 95%
    19:00 0°C° 0 mm 3 mps 744 mmHg 96%
    20:00 0°C° 0 mm 3 mps 744 mmHg 97%
    21:00 0°C° 0 mm 3 mps 744 mmHg 97%
    22:00 -1°C° 0 mm 4 mps 743 mmHg 97%
    23:00 -1°C° 0 mm 4 mps 743 mmHg 97%
    Show more